Terug naar catalogus

PRAETORIAN SDA_521

ActiefMilitairPO
NORAD 100079·PAYLOAD·🇺🇸 United States

Gelanceerd Jul 16, 2026 vanaf Vandenberg Space Force Base

Loading…

Volgende Passages (komende 24 uur)

TLE

VersSource: Space-Track

Epoch: Sep 14, 2026, 23:06 UTC

1 A0079U 26163W   26257.96256064  .00000123  00000-0  96359-4 0  9996
2 A0079  81.4773 254.9734 0016829  54.2119 306.0601 13.85973957  8337

Volg PRAETORIAN SDA_521 in realtime met AllMySat

Download on the App Store